Location: Dehesa de la Cepeda
(40.6574°N, 4.3013°W)
Time: 13:46:15
(UTC+00:00)

Vanguard 2 Rocket - All Passes

Search period start: 04 August 2021 00:00
Search period end: 14 August 2021 00:00
Orbit: 555 x 3325 km, 32.9° (Epoch: 04 August)

Date Brightness Start Highest point End Pass type
(mag) Time Alt. Az. Time Alt. Az. Time Alt. Az.
04 Aug - 05:05:59 10° S 05:08:16 12° SSE 05:10:15 10° SE daylight
04 Aug - 07:17:08 10° SW 07:20:45 25° S 07:24:02 10° ESE daylight
04 Aug - 09:29:35 10° WSW 09:32:57 26° S 09:36:51 10° SE daylight
04 Aug - 11:42:48 10° SW 11:45:31 15° SSW 11:48:49 10° SSE daylight
05 Aug - 04:08:21 10° SSE 04:08:43 10° SSE 04:09:05 10° SSE visible
05 Aug - 06:17:34 10° SW 06:21:32 22° S 06:24:46 10° ESE daylight
05 Aug - 08:30:18 10° WSW 08:33:46 28° S 08:37:20 10° ESE daylight
05 Aug - 10:43:16 10° WSW 10:46:06 17° SSW 10:49:29 10° SSE daylight
06 Aug - 05:17:51 10° SSW 05:22:11 20° SSE 05:25:33 10° ESE daylight
06 Aug - 07:30:45 10° WSW 07:34:37 29° S 07:38:04 10° ESE daylight
06 Aug - 09:43:50 10° WSW 09:46:49 20° SSW 09:50:10 10° SE daylight
07 Aug - 04:18:02 10° SSW 04:22:41 18° SSE 04:26:14 10° ESE visible
07 Aug - 06:30:54 10° SW 06:35:25 29° S 06:38:58 10° ESE daylight
07 Aug - 08:44:19 10° WSW 08:47:37 24° S 08:50:59 10° SE daylight
07 Aug - 10:59:56 10° SSW 10:59:58 10° SSW 11:00:01 10° SSW daylight
08 Aug - 03:18:19 10° SSW 03:22:59 15° SSE 03:26:37 10° SE visible
08 Aug - 05:30:46 10° SW 05:36:07 28° S 05:39:58 10° ESE daylight
08 Aug - 07:44:35 10° WSW 07:48:29 28° S 07:51:55 10° SE daylight
08 Aug - 09:58:38 10° SW 10:00:39 13° SSW 10:02:46 10° SSE daylight
09 Aug - 02:19:05 10° S 02:23:04 13° SSE 02:26:21 10° SE visible
09 Aug - 04:30:23 10° SW 04:36:39 26° SSE 04:40:58 10° ESE visible
09 Aug - 06:44:32 10° WSW 06:49:19 32° S 06:52:59 10° ESE daylight
09 Aug - 08:58:37 10° WSW 09:01:26 18° SSW 09:04:14 10° SSE daylight
10 Aug - 01:22:23 10° SSE 01:22:54 10° SSE 01:23:24 10° SSE visible
10 Aug - 03:29:52 10° SSW 03:36:59 24° SSE 03:41:49 10° ESE visible
10 Aug - 05:44:08 10° WSW 05:50:02 34° S 05:54:07 10° ESE daylight
10 Aug - 07:58:36 10° WSW 08:02:18 24° SSW 08:05:33 10° SE daylight
11 Aug - 02:29:25 10° SSW 02:37:05 21° SSE 02:42:25 10° ESE visible
11 Aug - 04:43:23 10° SW 04:50:36 35° S 04:55:15 10° ESE visible
11 Aug - 06:58:21 10° WSW 07:03:09 31° S 07:06:49 10° SE daylight
11 Aug - 09:13:42 10° SW 09:15:08 12° SSW 09:16:35 10° S daylight
12 Aug - 01:29:16 10° SSW 01:36:55 18° SSE 01:42:33 10° ESE visible
12 Aug - 03:42:25 10° SW 03:50:56 33° S 03:56:19 10° ESE visible
12 Aug - 05:57:45 10° WSW 06:03:55 37° S 06:08:05 10° ESE daylight
12 Aug - 08:12:54 10° WSW 08:16:02 18° SSW 08:18:49 10° SSE daylight
13 Aug - 00:29:52 10° S 00:36:30 15° SSE 00:41:48 10° ESE visible
13 Aug - 02:41:19 10° SW 02:51:03 31° SSE 02:57:11 10° ESE visible
13 Aug - 04:56:47 10° WSW 05:04:30 41° S 05:09:20 10° ESE visible
13 Aug - 07:12:20 10° WSW 07:16:56 27° SSW 07:20:28 10° SE daylight
13 Aug - 23:32:44 10° SSE 23:35:52 11° SSE 23:38:42 10° SE night (unlit)
